TimeCST,TemperatureF,Dew PointF,Humidity,Sea Level PressureIn,VisibilityMPH,Wind Direction,Wind SpeedMPH,Gust SpeedMPH,PrecipitationIn,Events,Conditions,WindDirDegrees,DateUTC
12:15 AM,30.2,12.2,47,30.23,10.0,NNE,4.6,-,N/A,,Partly Cloudy,30,2013-02-16 06:15:00
12:35 AM,30.2,12.2,47,30.23,10.0,NNE,3.5,-,N/A,,Mostly Cloudy,30,2013-02-16 06:35:00
12:55 AM,30.2,12.2,47,30.23,10.0,North,3.5,-,N/A,,Mostly Cloudy,10,2013-02-16 06:55:00
1:15 AM,30.2,12.2,47,30.23,10.0,Calm,Calm,-,N/A,,Overcast,0,2013-02-16 07:15:00
1:35 AM,28.4,12.2,51,30.23,10.0,Calm,Calm,-,N/A,,Overcast,0,2013-02-16 07:35:00
1:55 AM,28.4,12.2,51,30.22,10.0,Calm,Calm,-,N/A,,Overcast,0,2013-02-16 07:55:00
2:15 AM,28.4,14.0,55,30.23,10.0,Calm,Calm,-,N/A,,Overcast,0,2013-02-16 08:15:00
2:35 AM,26.6,12.2,55,30.23,10.0,Calm,Calm,-,N/A,,Scattered Clouds,0,2013-02-16 08:35:00
2:55 AM,28.4,15.8,59,30.23,10.0,WNW,3.5,-,N/A,,Clear,290,2013-02-16 08:55:00
3:15 AM,28.4,14.0,55,30.23,10.0,Calm,Calm,-,N/A,,Clear,0,2013-02-16 09:15:00
3:35 AM,26.6,14.0,59,30.22,10.0,Calm,Calm,-,N/A,,Clear,0,2013-02-16 09:35:00
3:55 AM,26.6,14.0,59,30.22,10.0,Calm,Calm,-,N/A,,Partly Cloudy,0,2013-02-16 09:55:00
4:15 AM,26.6,14.0,59,30.22,10.0,Calm,Calm,-,N/A,,Clear,0,2013-02-16 10:15:00
4:35 AM,28.4,17.6,64,30.22,10.0,WNW,3.5,-,N/A,,Clear,290,2013-02-16 10:35:00
5:15 AM,28.4,17.6,64,30.22,10.0,WNW,3.5,-,N/A,,Clear,290,2013-02-16 11:15:00
5:35 AM,28.4,15.8,59,30.22,10.0,NW,4.6,-,N/A,,Clear,320,2013-02-16 11:35:00
5:55 AM,28.4,12.2,51,30.23,10.0,NW,4.6,-,N/A,,Clear,310,2013-02-16 11:55:00
6:15 AM,28.4,12.2,51,30.23,10.0,NW,4.6,-,N/A,,Clear,320,2013-02-16 12:15:00
6:35 AM,28.4,12.2,51,30.23,10.0,NNW,5.8,-,N/A,,Clear,330,2013-02-16 12:35:00
6:55 AM,28.4,12.2,51,30.24,10.0,NNW,6.9,-,N/A,,Clear,330,2013-02-16 12:55:00
7:15 AM,28.4,12.2,51,30.24,10.0,NNW,6.9,-,N/A,,Clear,330,2013-02-16 13:15:00
7:35 AM,28.4,14.0,55,30.24,10.0,NNW,9.2,-,N/A,,Clear,330,2013-02-16 13:35:00
7:55 AM,28.4,14.0,55,30.25,10.0,NNW,10.4,18.4,N/A,,Clear,340,2013-02-16 13:55:00
8:15 AM,30.2,15.8,55,30.25,10.0,NNW,12.7,-,N/A,,Partly Cloudy,340,2013-02-16 14:15:00
8:35 AM,30.2,15.8,55,30.25,10.0,North,12.7,-,N/A,,Clear,350,2013-02-16 14:35:00
8:55 AM,30.2,15.8,55,30.26,10.0,North,12.7,-,N/A,,Clear,350,2013-02-16 14:55:00
9:15 AM,30.2,15.8,55,30.26,10.0,NNW,15.0,19.6,N/A,,Clear,340,2013-02-16 15:15:00
9:35 AM,32.0,15.8,51,30.27,10.0,NNW,12.7,-,N/A,,Mostly Cloudy,340,2013-02-16 15:35:00
9:55 AM,33.8,15.8,48,30.27,10.0,NNW,10.4,-,N/A,,Mostly Cloudy,340,2013-02-16 15:55:00
10:15 AM,33.8,15.8,48,30.28,10.0,NNW,10.4,16.1,N/A,,Partly Cloudy,340,2013-02-16 16:15:00
10:35 AM,33.8,15.8,48,30.28,10.0,North,11.5,-,N/A,,Partly Cloudy,10,2013-02-16 16:35:00
10:55 AM,33.8,15.8,48,30.28,10.0,NW,8.1,16.1,N/A,,Partly Cloudy,310,2013-02-16 16:55:00
11:15 AM,33.8,15.8,48,30.28,10.0,NNW,9.2,-,N/A,,Scattered Clouds,340,2013-02-16 17:15:00
11:35 AM,35.6,15.8,44,30.28,10.0,NW,15.0,18.4,N/A,,Partly Cloudy,320,2013-02-16 17:35:00
11:55 AM,35.6,15.8,44,30.27,10.0,WNW,9.2,-,N/A,,Mostly Cloudy,300,2013-02-16 17:55:00
12:15 PM,35.6,14.0,41,30.27,10.0,NW,11.5,16.1,N/A,,Overcast,320,2013-02-16 18:15:00
12:35 PM,35.6,15.8,44,30.27,10.0,NW,12.7,20.7,N/A,,Overcast,310,2013-02-16 18:35:00
12:55 PM,35.6,15.8,44,30.26,10.0,NW,11.5,16.1,N/A,,Scattered Clouds,320,2013-02-16 18:55:00
1:15 PM,37.4,15.8,41,30.26,10.0,WNW,12.7,19.6,N/A,,Partly Cloudy,300,2013-02-16 19:15:00
1:35 PM,37.4,12.2,36,30.25,10.0,NNW,11.5,16.1,N/A,,Partly Cloudy,340,2013-02-16 19:35:00
1:55 PM,37.4,12.2,36,30.25,10.0,WNW,10.4,16.1,N/A,,Partly Cloudy,300,2013-02-16 19:55:00
2:15 PM,37.4,12.2,36,30.24,10.0,NW,6.9,17.3,N/A,,Partly Cloudy,310,2013-02-16 20:15:00
2:35 PM,35.6,12.2,38,30.24,10.0,NW,8.1,17.3,N/A,,Partly Cloudy,320,2013-02-16 20:35:00
2:55 PM,37.4,14.0,38,30.24,10.0,NNW,12.7,16.1,N/A,,Scattered Clouds,340,2013-02-16 20:55:00
3:15 PM,37.4,14.0,38,30.24,10.0,NNW,12.7,17.3,N/A,,Scattered Clouds,340,2013-02-16 21:15:00
3:35 PM,35.6,12.2,38,30.24,10.0,WNW,9.2,-,N/A,,Mostly Cloudy,300,2013-02-16 21:35:00
3:55 PM,37.4,12.2,36,30.25,10.0,WNW,6.9,-,N/A,,Partly Cloudy,300,2013-02-16 21:55:00
4:15 PM,35.6,12.2,38,30.25,10.0,NW,9.2,-,N/A,,Scattered Clouds,310,2013-02-16 22:15:00
4:35 PM,35.6,10.4,35,30.24,10.0,NW,9.2,-,N/A,,Scattered Clouds,320,2013-02-16 22:35:00
4:55 PM,35.6,12.2,38,30.25,10.0,NW,8.1,-,N/A,,Clear,320,2013-02-16 22:55:00
5:15 PM,35.6,10.4,35,30.25,10.0,WNW,5.8,-,N/A,,Clear,300,2013-02-16 23:15:00
5:35 PM,35.6,12.2,38,30.24,10.0,NW,5.8,-,N/A,,Clear,310,2013-02-16 23:35:00
5:55 PM,33.8,12.2,41,30.25,10.0,West,4.6,-,N/A,,Clear,260,2013-02-16 23:55:00
6:15 PM,33.8,12.2,41,30.25,10.0,Calm,Calm,-,N/A,,Clear,0,2013-02-17 00:15:00
6:35 PM,30.2,12.2,47,30.25,10.0,Calm,Calm,-,N/A,,Clear,0,2013-02-17 00:35:00
6:55 PM,30.2,10.4,44,30.25,10.0,Calm,Calm,-,N/A,,Clear,0,2013-02-17 00:55:00
7:15 PM,28.4,10.4,47,30.25,10.0,South,3.5,-,N/A,,Clear,190,2013-02-17 01:15:00
7:35 PM,28.4,12.2,51,30.25,10.0,South,3.5,-,N/A,,Clear,190,2013-02-17 01:35:00
7:55 PM,28.4,12.2,51,30.25,10.0,SSW,3.5,-,N/A,,Clear,200,2013-02-17 01:55:00
8:15 PM,28.4,10.4,47,30.25,10.0,Calm,Calm,-,N/A,,Clear,0,2013-02-17 02:15:00
8:35 PM,28.4,10.4,47,30.25,10.0,SSW,3.5,-,N/A,,Clear,200,2013-02-17 02:35:00
8:55 PM,30.2,10.4,44,30.25,10.0,Calm,Calm,-,N/A,,Clear,0,2013-02-17 02:55:00
9:15 PM,30.2,10.4,44,30.25,10.0,Calm,Calm,-,N/A,,Clear,0,2013-02-17 03:15:00
9:35 PM,28.4,10.4,47,30.25,10.0,Calm,Calm,-,N/A,,Clear,0,2013-02-17 03:35:00
9:55 PM,28.4,10.4,47,30.25,10.0,Calm,Calm,-,N/A,,Clear,0,2013-02-17 03:55:00
10:15 PM,28.4,10.4,47,30.25,10.0,Calm,Calm,-,N/A,,Clear,0,2013-02-17 04:15:00
10:35 PM,28.4,10.4,47,30.25,10.0,Calm,Calm,-,N/A,,Clear,0,2013-02-17 04:35:00
10:55 PM,28.4,10.4,47,30.25,10.0,Calm,Calm,-,N/A,,Clear,0,2013-02-17 04:55:00
11:15 PM,26.6,10.4,51,30.25,10.0,SSW,3.5,-,N/A,,Clear,200,2013-02-17 05:15:00
11:35 PM,28.4,10.4,47,30.25,10.0,South,3.5,-,N/A,,Partly Cloudy,180,2013-02-17 05:35:00
11:55 PM,28.4,10.4,47,30.25,10.0,Calm,Calm,-,N/A,,Scattered Clouds,0,2013-02-17 05:55:00